Location: Lancaster
(34.6980°N, 118.1360°W)
Time: 08:34:14
(UTC-07:00)

N. Korean satellite - Visible Passes

Search period start: 29 September 2022 00:00
Search period end: 09 October 2022 00:00
Orbit: 427 x 468 km, 97.3° (Epoch: 28 September)

Date Brightness Start Highest point End Pass type
(mag) Time Alt. Az. Time Alt. Az. Time Alt. Az.
29 Sep 9.4 05:22:31 10° NE 05:24:51 18° E 05:27:10 10° SE visible
30 Sep 6.4 06:18:39 10° N 06:21:51 54° WNW 06:25:01 10° SSW visible
01 Oct 8.0 05:43:02 10° NNE 05:46:05 36° E 05:49:08 10° SSE visible
02 Oct 9.9 05:09:04 10° ENE 05:10:08 11° E 05:11:12 10° ESE visible
03 Oct 6.3 06:03:52 10° NNE 06:07:09 84° ESE 06:10:24 10° S visible
04 Oct 9.0 05:28:36 10° NE 05:31:13 22° E 05:33:50 10° SSE visible
05 Oct 6.7 06:24:52 10° N 06:28:00 43° WNW 06:31:06 10° SSW visible
06 Oct 7.5 05:48:56 10° NNE 05:52:06 46° E 05:55:15 10° S visible
07 Oct 9.7 05:14:16 10° ENE 05:16:00 14° E 05:17:44 10° SE visible
08 Oct 6.2 06:09:30 10° N 06:12:46 79° WNW 06:16:03 10° SSW visible
